When you browse on this site, cookies collect data to enhance your experience and personalize the content and advertising you see.
Visit our Privacy Policy to learn more. By continuing to use the site, you agree to this use of cookies and data.
  • In Lithuania
  • List of Countries
  • For 7 days
  • Water Temperature
  • Weather Map
  • Weather Widgets
  • user-avatar
    Login

    Hourly Weather Newcastle

    Today, 14 December, Saturday

    Time Temperature Precipitation Wind Pressure Humidity
    00:00 +18°C° 0 mm 2 mps 759 mmHg 89%
    01:00 +18°C° 0 mm 2 mps 759 mmHg 90%
    02:00 +17°C° 0 mm 2 mps 758 mmHg 92%
    03:00 +17°C° 0 mm 2 mps 758 mmHg 93%
    04:00 +17°C° 0 mm 2 mps 757 mmHg 95%
    05:00 +19°C° 0 mm 2 mps 758 mmHg 88%
    06:00 +21°C° 0 mm 2 mps 758 mmHg 81%
    07:00 +23°C° 0 mm 2 mps 758 mmHg 74%
    08:00 +25°C° 0 mm 2 mps 758 mmHg 67%
    09:00 +26°C° 0 mm 2 mps 757 mmHg 61%
    10:00 +29°C° 0 mm 2 mps 757 mmHg 52%
    11:00 +30°C° 0 mm 3 mps 756 mmHg 48%
    12:00 +33°C° 0 mm 3 mps 756 mmHg 43%
    13:00 +34°C° 0 mm 4 mps 755 mmHg 39%
    14:00 +32°C° 0 mm 5 mps 755 mmHg 46%
    15:00 +30°C° 0 mm 6 mps 754 mmHg 52%
    16:00 +29°C° 0 mm 7 mps 754 mmHg 59%
    17:00 +27°C° 0 mm 6 mps 755 mmHg 66%
    18:00 +25°C° 0 mm 5 mps 755 mmHg 74%
    19:00 +23°C° 0 mm 4 mps 756 mmHg 81%
    20:00 +22°C° 0 mm 4 mps 756 mmHg 86%
    21:00 +21°C° 0 mm 3 mps 757 mmHg 92%
    22:00 +20°C° 0 mm 3 mps 757 mmHg 97%
    23:00 +20°C° 0 mm 2 mps 757 mmHg 97%

    Tomorrow, 15 December, Sunday

    Time Temperature Precipitation Wind Pressure Humidity
    00:00 +20°C° 0 mm 2 mps 757 mmHg 97%
    01:00 +20°C° 0 mm 2 mps 757 mmHg 98%
    02:00 +21°C° 0.1 mm 1 mps 757 mmHg 97%
    03:00 +21°C° 0.1 mm 1 mps 757 mmHg 97%
    04:00 +21°C° 0.1 mm 1 mps 757 mmHg 97%
    05:00 +22°C° 0.1 mm 1 mps 757 mmHg 93%
    06:00 +23°C° 0.1 mm 1 mps 757 mmHg 89%
    07:00 +24°C° 0.1 mm 1 mps 757 mmHg 84%
    08:00 +25°C° 0 mm 1 mps 757 mmHg 76%
    09:00 +27°C° 0 mm 1 mps 757 mmHg 67%
    10:00 +28°C° 0 mm 1 mps 757 mmHg 59%
    11:00 +30°C° 0 mm 2 mps 756 mmHg 52%
    12:00 +32°C° 0 mm 2 mps 755 mmHg 46%
    13:00 +35°C° 0 mm 3 mps 755 mmHg 40%
    14:00 +34°C° 0 mm 4 mps 754 mmHg 42%
    15:00 +32°C° 0 mm 5 mps 754 mmHg 45%
    16:00 +30°C° 0 mm 6 mps 753 mmHg 48%
    17:00 +28°C° 0 mm 5 mps 753 mmHg 58%
    18:00 +26°C° 0 mm 5 mps 754 mmHg 68%
    19:00 +23°C° 0 mm 4 mps 754 mmHg 78%
    20:00 +22°C° 0 mm 4 mps 754 mmHg 82%
    21:00 +21°C° 0 mm 3 mps 755 mmHg 87%
    22:00 +20°C° 0 mm 3 mps 755 mmHg 92%
    23:00 +20°C° 0 mm 3 mps 754 mmHg 84%

    Day after tomorrow, 16 December, Monday

    Time Temperature Precipitation Wind Pressure Humidity
    00:00 +21°C° 0 mm 3 mps 754 mmHg 76%
    01:00 +21°C° 0 mm 2 mps 754 mmHg 67%
    02:00 +21°C° 0 mm 3 mps 754 mmHg 58%
    03:00 +21°C° 0 mm 3 mps 754 mmHg 49%
    04:00 +21°C° 0 mm 3 mps 754 mmHg 40%
    05:00 +22°C° 0 mm 4 mps 754 mmHg 44%
    06:00 +23°C° 0 mm 6 mps 755 mmHg 49%
    07:00 +24°C° 0 mm 7 mps 756 mmHg 53%
    08:00 +26°C° 0 mm 7 mps 756 mmHg 55%
    09:00 +26°C° 0 mm 8 mps 757 mmHg 57%
    10:00 +27°C° 0 mm 8 mps 757 mmHg 59%
    11:00 +26°C° 0 mm 7 mps 758 mmHg 60%
    12:00 +24°C° 0 mm 7 mps 758 mmHg 62%
    13:00 +23°C° 0 mm 6 mps 758 mmHg 63%
    14:00 +23°C° 0 mm 6 mps 758 mmHg 62%
    15:00 +23°C° 0 mm 5 mps 759 mmHg 61%
    16:00 +23°C° 0 mm 5 mps 759 mmHg 60%
    17:00 +22°C° 0 mm 4 mps 760 mmHg 64%
    18:00 +21°C° 0 mm 4 mps 761 mmHg 68%
    19:00 +20°C° 0 mm 3 mps 762 mmHg 72%
    20:00 +20°C° 0 mm 3 mps 762 mmHg 74%
    21:00 +19°C° 0 mm 3 mps 763 mmHg 76%
    22:00 +19°C° 0 mm 2 mps 763 mmHg 78%
    23:00 +19°C° 0.1 mm 2 mps 763 mmHg 81%

    17 December, Tuesday

    Time Temperature Precipitation Wind Pressure Humidity
    00:00 +18°C° 0.1 mm 2 mps 763 mmHg 83%
    01:00 +18°C° 0.1 mm 2 mps 763 mmHg 85%
    02:00 +18°C° 0 mm 2 mps 763 mmHg 85%
    03:00 +17°C° 0 mm 2 mps 763 mmHg 85%
    04:00 +17°C° 0 mm 2 mps 763 mmHg 85%
    05:00 +18°C° 0 mm 2 mps 763 mmHg 77%
    06:00 +20°C° 0 mm 2 mps 763 mmHg 69%
    07:00 +21°C° 0 mm 2 mps 764 mmHg 61%
    08:00 +22°C° 0 mm 3 mps 764 mmHg 56%
    09:00 +25°C° 0 mm 3 mps 764 mmHg 51%
    10:00 +26°C° 0 mm 3 mps 764 mmHg 46%
    11:00 +26°C° 0 mm 4 mps 764 mmHg 45%
    12:00 +26°C° 0 mm 4 mps 763 mmHg 44%
    13:00 +26°C° 0 mm 4 mps 763 mmHg 43%
    14:00 +26°C° 0 mm 4 mps 763 mmHg 44%
    15:00 +25°C° 0 mm 4 mps 763 mmHg 46%
    16:00 +25°C° 0 mm 4 mps 763 mmHg 47%
    17:00 +22°C° 0 mm 4 mps 763 mmHg 53%
    18:00 +21°C° 0 mm 4 mps 764 mmHg 60%
    19:00 +19°C° 0 mm 4 mps 765 mmHg 66%
    20:00 +18°C° 0 mm 3 mps 765 mmHg 72%
    21:00 +17°C° 0 mm 3 mps 765 mmHg 78%
    22:00 +16°C° 0 mm 3 mps 765 mmHg 84%
    23:00 +14°C° 0 mm 3 mps 765 mmHg 86%

    18 December, Wednesday

    Time Temperature Precipitation Wind Pressure Humidity
    00:00 +15°C° 0 mm 2 mps 765 mmHg 87%
    01:00 +14°C° 0 mm 2 mps 764 mmHg 89%
    02:00 +14°C° 0 mm 2 mps 764 mmHg 90%
    03:00 +14°C° 0 mm 2 mps 764 mmHg 91%
    04:00 +14°C° 0 mm 2 mps 764 mmHg 92%
    05:00 +16°C° 0 mm 2 mps 764 mmHg 81%
    06:00 +18°C° 0 mm 2 mps 764 mmHg 71%
    07:00 +20°C° 0 mm 2 mps 764 mmHg 60%
    08:00 +24°C° 0 mm 3 mps 764 mmHg 50%
    09:00 +27°C° 0 mm 3 mps 763 mmHg 40%
    10:00 +30°C° 0 mm 3 mps 763 mmHg 29%
    11:00 +32°C° 0 mm 4 mps 762 mmHg 29%
    12:00 +33°C° 0 mm 5 mps 762 mmHg 29%
    13:00 +34°C° 0 mm 6 mps 761 mmHg 29%
    14:00 +34°C° 0 mm 7 mps 760 mmHg 31%
    15:00 +34°C° 0 mm 7 mps 760 mmHg 33%
    16:00 +34°C° 0 mm 7 mps 759 mmHg 34%
    17:00 +30°C° 0 mm 7 mps 759 mmHg 41%
    18:00 +28°C° 0 mm 7 mps 760 mmHg 48%
    19:00 +24°C° 0 mm 7 mps 760 mmHg 55%
    20:00 +23°C° 0 mm 6 mps 760 mmHg 60%
    21:00 +21°C° 0 mm 5 mps 760 mmHg 65%
    22:00 +20°C° 0 mm 5 mps 760 mmHg 70%
    23:00 +20°C° 0 mm 4 mps 759 mmHg 70%

    19 December, Thursday

    Time Temperature Precipitation Wind Pressure Humidity
    00:00 +19°C° 0 mm 3 mps 759 mmHg 71%
    01:00 +19°C° 0 mm 3 mps 758 mmHg 72%
    02:00 +19°C° 0 mm 3 mps 758 mmHg 70%
    03:00 +19°C° 0 mm 3 mps 758 mmHg 67%
    04:00 +19°C° 0 mm 3 mps 757 mmHg 65%
    05:00 +22°C° 0 mm 3 mps 758 mmHg 54%
    06:00 +26°C° 0 mm 4 mps 758 mmHg 42%
    07:00 +29°C° 0 mm 4 mps 758 mmHg 31%
    08:00 +34°C° 0 mm 4 mps 758 mmHg 27%
    09:00 +37°C° 0 mm 5 mps 758 mmHg 23%
    10:00 +41°C° 0 mm 5 mps 758 mmHg 19%
    11:00 +43°C° 0 mm 5 mps 757 mmHg 17%
    12:00 +45°C° 0 mm 5 mps 757 mmHg 15%
    13:00 +47°C° 0 mm 5 mps 757 mmHg 14%
    14:00 +40°C° 0 mm 6 mps 757 mmHg 29%
    15:00 +34°C° 0 mm 8 mps 757 mmHg 44%
    16:00 +27°C° 0 mm 9 mps 758 mmHg 59%
    17:00 +26°C° 0 mm 8 mps 759 mmHg 63%
    18:00 +23°C° 0 mm 7 mps 760 mmHg 67%
    19:00 +22°C° 0 mm 5 mps 762 mmHg 70%
    20:00 +22°C° 0 mm 5 mps 762 mmHg 74%
    21:00 +21°C° 0 mm 5 mps 763 mmHg 78%
    22:00 +21°C° 0 mm 5 mps 764 mmHg 81%
    23:00 +21°C° 0 mm 5 mps 764 mmHg 79%
    Show more